Year,Month,Day,Hour,Minute,Value (Times are PST for temperature in C)
2012,09,13,00,00,8.90
2012,09,13,00,01,8.80
2012,09,13,00,02,8.80
2012,09,13,00,03,8.80
2012,09,13,00,04,8.80
2012,09,13,00,05,8.80
2012,09,13,00,06,8.80
2012,09,13,00,07,8.80
2012,09,13,00,08,8.80
2012,09,13,00,09,8.80
2012,09,13,00,10,8.80
2012,09,13,00,11,8.80
2012,09,13,00,12,8.80
2012,09,13,00,13,8.80
2012,09,13,00,14,8.80
2012,09,13,00,15,8.80
2012,09,13,00,16,8.70
2012,09,13,00,17,8.70
2012,09,13,00,18,8.70
2012,09,13,00,19,8.70
2012,09,13,00,20,8.70
2012,09,13,00,21,8.70
2012,09,13,00,22,8.70
2012,09,13,00,23,8.70
2012,09,13,00,24,8.70
2012,09,13,00,25,8.70
2012,09,13,00,26,8.70
2012,09,13,00,27,8.70
2012,09,13,00,28,8.70
2012,09,13,00,29,8.70
2012,09,13,00,30,8.70
2012,09,13,00,31,8.70
2012,09,13,00,32,8.70
2012,09,13,00,33,8.70
2012,09,13,00,34,8.60
2012,09,13,00,35,8.60
2012,09,13,00,36,8.60
2012,09,13,00,37,8.50
2012,09,13,00,38,8.50
2012,09,13,00,39,8.50
2012,09,13,00,40,8.40
2012,09,13,00,41,8.40
2012,09,13,00,42,8.40
2012,09,13,00,43,8.30
2012,09,13,00,44,8.30
2012,09,13,00,45,8.30
2012,09,13,00,46,8.30
2012,09,13,00,47,8.20
2012,09,13,00,48,8.20
2012,09,13,00,49,8.20
2012,09,13,00,50,8.20
2012,09,13,00,51,8.20
2012,09,13,00,52,8.20
2012,09,13,00,53,8.10
2012,09,13,00,54,8.10
2012,09,13,00,55,8.10
2012,09,13,00,56,8.10
2012,09,13,00,57,8.10
2012,09,13,00,58,8.00
2012,09,13,00,59,8.00
2012,09,13,01,00,8.00
2012,09,13,01,01,8.00
2012,09,13,01,02,8.00
2012,09,13,01,03,7.90
2012,09,13,01,04,7.90
2012,09,13,01,05,7.90
2012,09,13,01,06,7.90
2012,09,13,01,07,8.00
2012,09,13,01,08,8.00
2012,09,13,01,09,8.00
2012,09,13,01,10,8.00
2012,09,13,01,11,8.00
2012,09,13,01,12,8.00
2012,09,13,01,13,8.00
2012,09,13,01,14,8.00
2012,09,13,01,15,8.00
2012,09,13,01,16,8.00
2012,09,13,01,17,7.90
2012,09,13,01,18,7.90
2012,09,13,01,19,7.90
2012,09,13,01,20,7.80
2012,09,13,01,21,7.80
2012,09,13,01,22,7.80
2012,09,13,01,23,7.80
2012,09,13,01,24,7.80
2012,09,13,01,25,7.80
2012,09,13,01,26,7.80
2012,09,13,01,27,7.80
2012,09,13,01,28,7.80
2012,09,13,01,29,7.80
2012,09,13,01,30,7.80
2012,09,13,01,31,7.80
2012,09,13,01,32,7.70
2012,09,13,01,33,7.70
2012,09,13,01,34,7.70
2012,09,13,01,35,7.70
2012,09,13,01,36,7.70
2012,09,13,01,37,7.70
2012,09,13,01,38,7.70
2012,09,13,01,39,7.70
2012,09,13,01,40,7.60
2012,09,13,01,41,7.60
2012,09,13,01,42,7.60
2012,09,13,01,43,7.60
2012,09,13,01,44,7.60
2012,09,13,01,45,7.60
2012,09,13,01,46,7.60
2012,09,13,01,47,7.60
2012,09,13,01,48,7.60
2012,09,13,01,49,7.50
2012,09,13,01,50,7.50
2012,09,13,01,51,7.50
2012,09,13,01,52,7.50
2012,09,13,01,53,7.50
2012,09,13,01,54,7.50
2012,09,13,01,55,7.50
2012,09,13,01,56,7.50
2012,09,13,01,57,7.50
2012,09,13,01,58,7.50
2012,09,13,01,59,7.50
2012,09,13,02,00,7.50
2012,09,13,02,01,7.50
2012,09,13,02,02,7.50
2012,09,13,02,03,7.50
2012,09,13,02,04,7.50
2012,09,13,02,05,7.50
2012,09,13,02,06,7.50
2012,09,13,02,07,7.50
2012,09,13,02,08,7.50
2012,09,13,02,09,7.50
2012,09,13,02,10,7.50
2012,09,13,02,11,7.50
2012,09,13,02,12,7.50
2012,09,13,02,13,7.50
2012,09,13,02,14,7.50
2012,09,13,02,15,7.50
2012,09,13,02,16,7.50
2012,09,13,02,17,7.40
2012,09,13,02,18,7.40
2012,09,13,02,19,7.40
2012,09,13,02,20,7.40
2012,09,13,02,21,7.40
2012,09,13,02,22,7.30
2012,09,13,02,23,7.30
2012,09,13,02,24,7.30
2012,09,13,02,25,7.40
2012,09,13,02,26,7.40
2012,09,13,02,27,7.40
2012,09,13,02,28,7.40
2012,09,13,02,29,7.40
2012,09,13,02,30,7.30
2012,09,13,02,31,7.30
2012,09,13,02,32,7.30
2012,09,13,02,33,7.30
2012,09,13,02,34,7.30
2012,09,13,02,35,7.30
2012,09,13,02,36,7.30
2012,09,13,02,37,7.30
2012,09,13,02,38,7.30
2012,09,13,02,39,7.20
2012,09,13,02,40,7.20
2012,09,13,02,41,7.20
2012,09,13,02,42,7.20
2012,09,13,02,43,7.20
2012,09,13,02,44,7.20
2012,09,13,02,45,7.20
2012,09,13,02,46,7.20
2012,09,13,02,47,7.20
2012,09,13,02,48,7.20
2012,09,13,02,49,7.20
2012,09,13,02,50,7.20
2012,09,13,02,51,7.20
2012,09,13,02,52,7.20
2012,09,13,02,53,7.20
2012,09,13,02,54,7.20
2012,09,13,02,55,7.20
2012,09,13,02,56,7.20
2012,09,13,02,57,7.20
2012,09,13,02,58,7.20
2012,09,13,02,59,7.20
2012,09,13,03,00,7.10
2012,09,13,03,01,7.10
2012,09,13,03,02,7.10
2012,09,13,03,03,7.10
2012,09,13,03,04,7.10
2012,09,13,03,05,7.10
2012,09,13,03,06,7.10
2012,09,13,03,07,7.10
2012,09,13,03,08,7.10
2012,09,13,03,09,7.10
2012,09,13,03,10,7.10
2012,09,13,03,11,7.10
2012,09,13,03,12,7.20
2012,09,13,03,13,7.20
2012,09,13,03,14,7.20
2012,09,13,03,15,7.20
2012,09,13,03,16,7.20
2012,09,13,03,17,7.20
2012,09,13,03,18,7.30
2012,09,13,03,19,7.30
2012,09,13,03,20,7.30
2012,09,13,03,21,7.30
2012,09,13,03,22,7.30
2012,09,13,03,23,7.30
2012,09,13,03,24,7.30
2012,09,13,03,25,7.30
2012,09,13,03,26,7.30
2012,09,13,03,27,7.30
2012,09,13,03,28,7.30
2012,09,13,03,29,7.30
2012,09,13,03,30,7.30
2012,09,13,03,31,7.30
2012,09,13,03,32,7.30
2012,09,13,03,33,7.30
2012,09,13,03,34,7.30
2012,09,13,03,35,7.30
2012,09,13,03,36,7.30
2012,09,13,03,37,7.30
2012,09,13,03,38,7.30
2012,09,13,03,39,7.30
2012,09,13,03,40,7.30
2012,09,13,03,41,7.30
2012,09,13,03,42,7.20
2012,09,13,03,43,7.20
2012,09,13,03,44,7.20
2012,09,13,03,45,7.10
2012,09,13,03,46,7.10
2012,09,13,03,47,7.10
2012,09,13,03,48,7.10
2012,09,13,03,49,7.00
2012,09,13,03,50,7.00
2012,09,13,03,51,7.00
2012,09,13,03,52,7.00
2012,09,13,03,53,7.00
2012,09,13,03,54,7.00
2012,09,13,03,55,7.00
2012,09,13,03,56,7.00
2012,09,13,03,57,7.00
2012,09,13,03,58,7.00
2012,09,13,03,59,7.00
2012,09,13,04,00,7.10
2012,09,13,04,01,7.10
2012,09,13,04,02,7.10
2012,09,13,04,03,7.10
2012,09,13,04,04,7.20
2012,09,13,04,05,7.20
2012,09,13,04,06,7.20
2012,09,13,04,07,7.20
2012,09,13,04,08,7.20
2012,09,13,04,09,7.20
2012,09,13,04,10,7.20
2012,09,13,04,11,7.20
2012,09,13,04,12,7.20
2012,09,13,04,13,7.20
2012,09,13,04,14,7.20
2012,09,13,04,15,7.20
2012,09,13,04,16,7.20
2012,09,13,04,17,7.20
2012,09,13,04,18,7.10
2012,09,13,04,19,7.20
2012,09,13,04,20,7.20
2012,09,13,04,21,7.20
2012,09,13,04,22,7.20
2012,09,13,04,23,7.30
2012,09,13,04,24,7.30
2012,09,13,04,25,7.30
2012,09,13,04,26,7.30
2012,09,13,04,27,7.30
2012,09,13,04,28,7.30
2012,09,13,04,29,7.40
2012,09,13,04,30,7.40
2012,09,13,04,31,7.40
2012,09,13,04,32,7.40
2012,09,13,04,33,7.40
2012,09,13,04,34,7.40
2012,09,13,04,35,7.40
2012,09,13,04,36,7.40
2012,09,13,04,37,7.50
2012,09,13,04,38,7.50
2012,09,13,04,39,7.50
2012,09,13,04,40,7.50
2012,09,13,04,41,7.50
2012,09,13,04,42,7.50
2012,09,13,04,43,7.60
2012,09,13,04,44,7.60
2012,09,13,04,45,7.60
2012,09,13,04,46,7.60
2012,09,13,04,47,7.60
2012,09,13,04,48,7.60
2012,09,13,04,49,7.60
2012,09,13,04,50,7.70
2012,09,13,04,51,7.70
2012,09,13,04,52,7.80
2012,09,13,04,53,7.80
2012,09,13,04,54,7.80
2012,09,13,04,55,7.90
2012,09,13,04,56,8.00
2012,09,13,04,57,8.00
2012,09,13,04,58,8.10
2012,09,13,04,59,8.20
2012,09,13,05,00,8.20
2012,09,13,05,01,8.30
2012,09,13,05,02,8.40
2012,09,13,05,03,8.50
2012,09,13,05,04,8.50
2012,09,13,05,05,8.60
2012,09,13,05,06,8.70
2012,09,13,05,07,8.70
2012,09,13,05,08,8.80
2012,09,13,05,09,8.90
2012,09,13,05,10,8.90
2012,09,13,05,11,9.00
2012,09,13,05,12,9.00
2012,09,13,05,13,9.10
2012,09,13,05,14,9.20
2012,09,13,05,15,9.20
2012,09,13,05,16,9.30
2012,09,13,05,17,9.40
2012,09,13,05,18,9.50
2012,09,13,05,19,9.50
2012,09,13,05,20,9.60
2012,09,13,05,21,9.70
2012,09,13,05,22,9.70
2012,09,13,05,23,9.70
2012,09,13,05,24,9.80
2012,09,13,05,25,9.80
2012,09,13,05,26,9.80
2012,09,13,05,27,9.80
2012,09,13,05,28,9.80
2012,09,13,05,29,9.80
2012,09,13,05,30,9.80
2012,09,13,05,31,9.80
2012,09,13,05,32,9.80
2012,09,13,05,33,9.80
2012,09,13,05,34,9.80
2012,09,13,05,35,9.80
2012,09,13,05,36,9.80
2012,09,13,05,37,9.80
2012,09,13,05,38,9.70
2012,09,13,05,39,9.70
2012,09,13,05,40,9.70
2012,09,13,05,41,9.60
2012,09,13,05,42,9.60
2012,09,13,05,43,9.60
2012,09,13,05,44,9.60
2012,09,13,05,45,9.60
2012,09,13,05,46,9.60
2012,09,13,05,47,9.60
2012,09,13,05,48,9.60
2012,09,13,05,49,9.50
2012,09,13,05,50,9.50
2012,09,13,05,51,9.50
2012,09,13,05,52,9.50
2012,09,13,05,53,9.50
2012,09,13,05,54,9.50
2012,09,13,05,55,9.60
2012,09,13,05,56,9.60
2012,09,13,05,57,9.70
2012,09,13,05,58,9.70
2012,09,13,05,59,9.70
2012,09,13,06,00,9.70
2012,09,13,06,01,9.70
2012,09,13,06,02,9.70
2012,09,13,06,03,9.70
2012,09,13,06,04,9.80
2012,09,13,06,05,9.80
2012,09,13,06,06,9.90
2012,09,13,06,07,9.90
2012,09,13,06,08,9.90
2012,09,13,06,09,9.90
2012,09,13,06,10,10.10
2012,09,13,06,11,10.10
2012,09,13,06,12,10.10
2012,09,13,06,13,10.10
2012,09,13,06,14,10.10
2012,09,13,06,15,10.10
2012,09,13,06,16,10.10
2012,09,13,06,17,10.20
2012,09,13,06,18,10.20
2012,09,13,06,19,10.20
2012,09,13,06,20,10.30
2012,09,13,06,21,10.30
2012,09,13,06,22,10.40
2012,09,13,06,23,10.40
2012,09,13,06,24,10.60
2012,09,13,06,25,10.60
2012,09,13,06,26,10.60
2012,09,13,06,27,10.60
2012,09,13,06,28,10.60
2012,09,13,06,29,10.60
2012,09,13,06,30,10.60
2012,09,13,06,31,10.60
2012,09,13,06,32,10.60
2012,09,13,06,33,10.60
2012,09,13,06,34,10.60
2012,09,13,06,35,10.60
2012,09,13,06,36,10.60
2012,09,13,06,37,10.60
2012,09,13,06,38,10.60
2012,09,13,06,39,10.60
2012,09,13,06,40,10.60
2012,09,13,06,41,10.60
2012,09,13,06,42,10.60
2012,09,13,06,43,10.60
2012,09,13,06,44,10.60
2012,09,13,06,45,10.60
2012,09,13,06,46,10.60
2012,09,13,06,47,10.60
2012,09,13,06,48,10.60
2012,09,13,06,49,10.60
2012,09,13,06,50,10.60
2012,09,13,06,51,10.60
2012,09,13,06,52,10.60
2012,09,13,06,53,10.60
2012,09,13,06,54,10.60
2012,09,13,06,55,10.60
2012,09,13,06,56,10.60
2012,09,13,06,57,10.60
2012,09,13,06,58,10.70
2012,09,13,06,59,10.70
2012,09,13,07,00,10.70
2012,09,13,07,01,10.80
2012,09,13,07,02,10.80
2012,09,13,07,03,10.80
2012,09,13,07,04,10.80
2012,09,13,07,05,10.80
2012,09,13,07,06,10.80
2012,09,13,07,07,10.80
2012,09,13,07,08,10.80
2012,09,13,07,09,10.80
2012,09,13,07,10,10.80
2012,09,13,07,11,10.80
2012,09,13,07,12,10.80
2012,09,13,07,13,10.80
2012,09,13,07,14,10.70
2012,09,13,07,15,10.70
2012,09,13,07,16,10.70
2012,09,13,07,17,10.70
2012,09,13,07,18,10.70
2012,09,13,07,19,10.60
2012,09,13,07,20,10.60
2012,09,13,07,21,10.60
2012,09,13,07,22,10.60
2012,09,13,07,23,10.60
2012,09,13,07,24,10.60
2012,09,13,07,25,10.60
2012,09,13,07,26,10.60
2012,09,13,07,27,10.70
2012,09,13,07,28,10.70
2012,09,13,07,29,10.70
2012,09,13,07,30,10.70
2012,09,13,07,31,10.80
2012,09,13,07,32,10.80
2012,09,13,07,33,10.80
2012,09,13,07,34,10.90
2012,09,13,07,35,10.90
2012,09,13,07,36,10.90
2012,09,13,07,37,10.90
2012,09,13,07,38,11.00
2012,09,13,07,39,11.10
2012,09,13,07,40,11.10
2012,09,13,07,41,11.20
2012,09,13,07,42,11.20
2012,09,13,07,43,11.30
2012,09,13,07,44,11.40
2012,09,13,07,45,11.40
2012,09,13,07,46,11.50
2012,09,13,07,47,11.60
2012,09,13,07,48,11.60
2012,09,13,07,49,11.70
2012,09,13,07,50,11.80
2012,09,13,07,51,11.80
2012,09,13,07,52,12.00
2012,09,13,07,53,12.00
2012,09,13,07,54,12.10
2012,09,13,07,55,12.20
2012,09,13,07,56,12.30
2012,09,13,07,57,12.40
2012,09,13,07,58,12.50
2012,09,13,07,59,12.60
2012,09,13,08,00,12.60
2012,09,13,08,01,12.70
2012,09,13,08,02,12.80
2012,09,13,08,03,12.80
2012,09,13,08,04,12.80
2012,09,13,08,05,12.90
2012,09,13,08,06,12.90
2012,09,13,08,07,13.00
2012,09,13,08,08,13.10
2012,09,13,08,09,13.20
2012,09,13,08,10,13.20
2012,09,13,08,11,13.30
2012,09,13,08,12,13.40
2012,09,13,08,13,13.50
2012,09,13,08,14,13.50
2012,09,13,08,15,13.60
2012,09,13,08,16,13.70
2012,09,13,08,17,13.80
2012,09,13,08,18,13.90
2012,09,13,08,19,13.90
2012,09,13,08,20,14.00
2012,09,13,08,21,14.10
2012,09,13,08,22,14.20
2012,09,13,08,23,14.20
2012,09,13,08,24,14.30
2012,09,13,08,25,14.30
2012,09,13,08,26,14.40
2012,09,13,08,27,14.40
2012,09,13,08,28,14.50
2012,09,13,08,29,14.50
2012,09,13,08,30,14.60
2012,09,13,08,31,14.60
2012,09,13,08,32,14.60
2012,09,13,08,33,14.70
2012,09,13,08,34,14.80
2012,09,13,08,35,14.80
2012,09,13,08,36,14.90
2012,09,13,08,37,15.00
2012,09,13,08,38,15.10
2012,09,13,08,39,15.20
2012,09,13,08,40,15.20
2012,09,13,08,41,15.30
2012,09,13,08,42,15.50
2012,09,13,08,43,15.50
2012,09,13,08,44,15.60
2012,09,13,08,45,15.70
2012,09,13,08,46,15.70
2012,09,13,08,47,15.80
2012,09,13,08,48,15.90
2012,09,13,08,49,16.00
2012,09,13,08,50,16.10
2012,09,13,08,51,16.10
2012,09,13,08,52,16.20
2012,09,13,08,53,16.30
2012,09,13,08,54,16.30
2012,09,13,08,55,16.40
2012,09,13,08,56,16.40
2012,09,13,08,57,16.40
2012,09,13,08,58,16.50
2012,09,13,08,59,16.60
2012,09,13,09,00,16.60
2012,09,13,09,01,16.70
2012,09,13,09,02,16.70
2012,09,13,09,03,16.80
2012,09,13,09,04,16.90
2012,09,13,09,05,16.90
2012,09,13,09,06,17.00
2012,09,13,09,07,17.00
2012,09,13,09,08,17.10
2012,09,13,09,09,17.20
2012,09,13,09,10,17.20
2012,09,13,09,11,17.20
2012,09,13,09,12,17.20
2012,09,13,09,13,17.30
2012,09,13,09,14,17.30
2012,09,13,09,15,17.30
2012,09,13,09,16,17.30
2012,09,13,09,17,17.40
2012,09,13,09,18,17.50
2012,09,13,09,19,17.50
2012,09,13,09,20,17.60
2012,09,13,09,21,17.60
2012,09,13,09,22,17.60
2012,09,13,09,23,17.70
2012,09,13,09,24,17.70
2012,09,13,09,25,17.80
2012,09,13,09,26,17.80
2012,09,13,09,27,17.90
2012,09,13,09,28,17.90
2012,09,13,09,29,17.90
2012,09,13,09,30,17.90
2012,09,13,09,31,17.90
2012,09,13,09,32,17.90
2012,09,13,09,33,17.90
2012,09,13,09,34,17.90
2012,09,13,09,35,17.90
2012,09,13,09,36,17.90
2012,09,13,09,37,17.90
2012,09,13,09,38,17.90
2012,09,13,09,39,17.90
2012,09,13,09,40,18.10
2012,09,13,09,41,18.10
2012,09,13,09,42,18.10
2012,09,13,09,43,18.10
2012,09,13,09,44,18.10
2012,09,13,09,45,18.10
2012,09,13,09,46,18.10
2012,09,13,09,47,18.00
2012,09,13,09,48,17.90
2012,09,13,09,49,17.90
2012,09,13,09,50,17.90
2012,09,13,09,51,17.90
2012,09,13,09,52,17.90
2012,09,13,09,53,17.90
2012,09,13,09,54,18.00
2012,09,13,09,55,18.10
2012,09,13,09,56,18.10
2012,09,13,09,57,18.20
2012,09,13,09,58,18.20
2012,09,13,09,59,18.20
2012,09,13,10,00,18.20
2012,09,13,10,01,18.20
2012,09,13,10,02,18.20
2012,09,13,10,03,18.20
2012,09,13,10,04,18.20
2012,09,13,10,05,18.20
2012,09,13,10,06,18.20
2012,09,13,10,07,18.20
2012,09,13,10,08,18.20
2012,09,13,10,09,18.20
2012,09,13,10,10,18.20
2012,09,13,10,11,18.20
2012,09,13,10,12,18.30
2012,09,13,10,13,18.40
2012,09,13,10,14,18.40
2012,09,13,10,15,18.50
2012,09,13,10,16,18.60
2012,09,13,10,17,18.60
2012,09,13,10,18,18.70
2012,09,13,10,19,18.70
2012,09,13,10,20,18.80
2012,09,13,10,21,18.80
2012,09,13,10,22,18.80
2012,09,13,10,23,18.90
2012,09,13,10,24,18.90
2012,09,13,10,25,19.00
2012,09,13,10,26,19.10
2012,09,13,10,27,19.10
2012,09,13,10,28,19.10
2012,09,13,10,29,19.10
2012,09,13,10,30,19.20
2012,09,13,10,31,19.30
2012,09,13,10,32,19.30
2012,09,13,10,33,19.30
2012,09,13,10,34,19.40
2012,09,13,10,35,19.40
2012,09,13,10,36,19.40
2012,09,13,10,37,19.50
2012,09,13,10,38,19.50
2012,09,13,10,39,19.60
2012,09,13,10,40,19.60
2012,09,13,10,41,19.60
2012,09,13,10,42,19.60
2012,09,13,10,43,19.70
2012,09,13,10,44,19.70
2012,09,13,10,45,19.80
2012,09,13,10,46,19.80
2012,09,13,10,47,19.90
2012,09,13,10,48,20.00
2012,09,13,10,49,20.10
2012,09,13,10,50,20.20
2012,09,13,10,51,20.20
2012,09,13,10,52,20.20
2012,09,13,10,53,20.20
2012,09,13,10,54,20.20
2012,09,13,10,55,20.20
2012,09,13,10,56,20.20
2012,09,13,10,57,20.10
2012,09,13,10,58,20.10
2012,09,13,10,59,20.10
2012,09,13,11,00,20.10
2012,09,13,11,01,20.10
2012,09,13,11,02,20.20
2012,09,13,11,03,20.20
2012,09,13,11,04,20.30
2012,09,13,11,05,20.30
2012,09,13,11,06,20.40
2012,09,13,11,07,20.50
2012,09,13,11,08,20.50
2012,09,13,11,09,20.50
2012,09,13,11,10,20.50
2012,09,13,11,11,20.40
2012,09,13,11,12,20.40
2012,09,13,11,13,20.40
2012,09,13,11,14,20.40
2012,09,13,11,15,20.40
2012,09,13,11,16,20.40
2012,09,13,11,17,20.40
2012,09,13,11,18,20.30
2012,09,13,11,19,20.30
2012,09,13,11,20,20.30
2012,09,13,11,21,20.30
2012,09,13,11,22,20.30
2012,09,13,11,23,20.40
2012,09,13,11,24,20.40
2012,09,13,11,25,20.50
2012,09,13,11,26,20.50
2012,09,13,11,27,20.50
2012,09,13,11,28,20.60
2012,09,13,11,29,20.60
2012,09,13,11,30,20.70
2012,09,13,11,31,20.70
2012,09,13,11,32,20.80
2012,09,13,11,33,20.80
2012,09,13,11,34,20.90
2012,09,13,11,35,20.90
2012,09,13,11,36,20.90
2012,09,13,11,37,20.90
2012,09,13,11,38,21.00
2012,09,13,11,39,21.00
2012,09,13,11,40,21.10
2012,09,13,11,41,21.10
2012,09,13,11,42,21.20
2012,09,13,11,43,21.30
2012,09,13,11,44,21.30
2012,09,13,11,45,21.40
2012,09,13,11,46,21.50
2012,09,13,11,47,21.60
2012,09,13,11,48,21.60
2012,09,13,11,49,21.60
2012,09,13,11,50,21.60
2012,09,13,11,51,21.60
2012,09,13,11,52,21.60
2012,09,13,11,53,21.60
2012,09,13,11,54,21.60
2012,09,13,11,55,21.60
2012,09,13,11,56,21.60
2012,09,13,11,57,21.70
2012,09,13,11,58,21.70
2012,09,13,11,59,21.80
2012,09,13,12,00,21.90
2012,09,13,12,01,22.00
2012,09,13,12,02,22.10
2012,09,13,12,03,22.30
2012,09,13,12,04,22.40
2012,09,13,12,05,22.30
2012,09,13,12,06,22.30
2012,09,13,12,07,22.20
2012,09,13,12,08,22.20
2012,09,13,12,09,22.10
2012,09,13,12,10,22.00
2012,09,13,12,11,21.90
2012,09,13,12,12,21.80
2012,09,13,12,13,21.80
2012,09,13,12,14,21.80
2012,09,13,12,15,21.80
2012,09,13,12,16,21.90
2012,09,13,12,17,21.90
2012,09,13,12,18,21.90
2012,09,13,12,19,21.90
2012,09,13,12,20,21.90
2012,09,13,12,21,21.90
2012,09,13,12,22,21.90
2012,09,13,12,23,22.00
2012,09,13,12,24,22.00
2012,09,13,12,25,22.00
2012,09,13,12,26,22.00
2012,09,13,12,27,21.90
2012,09,13,12,28,21.90
2012,09,13,12,29,21.90
2012,09,13,12,30,21.90
2012,09,13,12,31,22.00
2012,09,13,12,32,22.10
2012,09,13,12,33,22.10
2012,09,13,12,34,22.10
2012,09,13,12,35,22.20
2012,09,13,12,36,22.30
2012,09,13,12,37,22.30
2012,09,13,12,38,22.40
2012,09,13,12,39,22.40
2012,09,13,12,40,22.50
2012,09,13,12,41,22.50
2012,09,13,12,42,22.40
2012,09,13,12,43,22.40
2012,09,13,12,44,22.40
2012,09,13,12,45,22.40
2012,09,13,12,46,22.50
2012,09,13,12,47,22.50
2012,09,13,12,48,22.70
2012,09,13,12,49,22.70
2012,09,13,12,50,22.60
2012,09,13,12,51,22.50
2012,09,13,12,52,22.50
2012,09,13,12,53,22.50
2012,09,13,12,54,22.50
2012,09,13,12,55,22.50
2012,09,13,12,56,22.60
2012,09,13,12,57,22.60
2012,09,13,12,58,22.60
2012,09,13,12,59,22.60
2012,09,13,13,00,22.60
2012,09,13,13,01,22.60
2012,09,13,13,02,22.70
2012,09,13,13,03,22.70
2012,09,13,13,04,22.80
2012,09,13,13,05,22.90
2012,09,13,13,06,22.90
2012,09,13,13,07,22.90
2012,09,13,13,08,22.90
2012,09,13,13,09,22.90
2012,09,13,13,10,22.90
2012,09,13,13,11,22.90
2012,09,13,13,12,22.90
2012,09,13,13,13,22.80
2012,09,13,13,14,22.80
2012,09,13,13,15,22.80
2012,09,13,13,16,22.80
2012,09,13,13,17,22.80
2012,09,13,13,18,22.80
2012,09,13,13,19,22.80
2012,09,13,13,20,22.80
2012,09,13,13,21,22.80
2012,09,13,13,22,22.80
2012,09,13,13,23,22.70
2012,09,13,13,24,22.80
2012,09,13,13,25,22.70
2012,09,13,13,26,22.70
2012,09,13,13,27,22.70
2012,09,13,13,28,22.70
2012,09,13,13,29,22.70
2012,09,13,13,30,22.80
2012,09,13,13,31,22.80
2012,09,13,13,32,22.90
2012,09,13,13,33,23.00
2012,09,13,13,34,23.10
2012,09,13,13,35,23.10
2012,09,13,13,36,23.20
2012,09,13,13,37,23.10
2012,09,13,13,38,23.10
2012,09,13,13,39,23.20
2012,09,13,13,40,23.20
2012,09,13,13,41,23.20
2012,09,13,13,42,23.20
2012,09,13,13,43,23.30
2012,09,13,13,44,23.30
2012,09,13,13,45,23.30
2012,09,13,13,46,23.30
2012,09,13,13,47,23.20
2012,09,13,13,48,23.10
2012,09,13,13,49,23.10
2012,09,13,13,50,23.10
2012,09,13,13,51,23.10
2012,09,13,13,52,23.10
2012,09,13,13,53,23.10
2012,09,13,13,54,23.20
2012,09,13,13,55,23.20
2012,09,13,13,56,23.20
2012,09,13,13,57,23.20
2012,09,13,13,58,23.30
2012,09,13,13,59,23.30
2012,09,13,14,00,23.30
2012,09,13,14,01,23.30
2012,09,13,14,02,23.30
2012,09,13,14,03,23.20
2012,09,13,14,04,23.10
2012,09,13,14,05,23.10
2012,09,13,14,06,23.20
2012,09,13,14,07,23.30
2012,09,13,14,08,23.30
2012,09,13,14,09,23.30
2012,09,13,14,10,23.40
2012,09,13,14,11,23.50
2012,09,13,14,12,23.60
2012,09,13,14,13,23.70
2012,09,13,14,14,23.70
2012,09,13,14,15,23.70
2012,09,13,14,16,23.80
2012,09,13,14,17,23.90
2012,09,13,14,18,23.90
2012,09,13,14,19,23.90
2012,09,13,14,20,23.80
2012,09,13,14,21,23.80
2012,09,13,14,22,23.80
2012,09,13,14,23,23.80
2012,09,13,14,24,23.80
2012,09,13,14,25,23.80
2012,09,13,14,26,23.80
2012,09,13,14,27,23.80
2012,09,13,14,28,23.80
2012,09,13,14,29,23.90
2012,09,13,14,30,23.90
2012,09,13,14,31,23.90
2012,09,13,14,32,23.80
2012,09,13,14,33,23.80
2012,09,13,14,34,23.80
2012,09,13,14,35,23.80
2012,09,13,14,36,23.90
2012,09,13,14,37,23.90
2012,09,13,14,38,23.90
2012,09,13,14,39,24.00
2012,09,13,14,40,24.00
2012,09,13,14,41,24.10
2012,09,13,14,42,24.10
2012,09,13,14,43,24.10
2012,09,13,14,44,24.10
2012,09,13,14,45,24.10
2012,09,13,14,46,24.00
2012,09,13,14,47,23.80
2012,09,13,14,48,23.70
2012,09,13,14,49,23.70
2012,09,13,14,50,23.70
2012,09,13,14,51,23.70
2012,09,13,14,52,23.70
2012,09,13,14,53,23.70
2012,09,13,14,54,23.70
2012,09,13,14,55,23.70
2012,09,13,14,56,23.80
2012,09,13,14,57,23.80
2012,09,13,14,58,23.80
2012,09,13,14,59,23.80
2012,09,13,15,00,23.70
2012,09,13,15,01,23.70
2012,09,13,15,02,23.70
2012,09,13,15,03,23.70
2012,09,13,15,04,23.60
2012,09,13,15,05,23.60
2012,09,13,15,06,23.60
2012,09,13,15,07,23.60
2012,09,13,15,08,23.70
2012,09,13,15,09,23.70
2012,09,13,15,10,23.80
2012,09,13,15,11,23.80
2012,09,13,15,12,23.90
2012,09,13,15,13,23.90
2012,09,13,15,14,23.90
2012,09,13,15,15,23.80
2012,09,13,15,16,23.80
2012,09,13,15,17,23.70
2012,09,13,15,18,23.80
2012,09,13,15,19,23.80
2012,09,13,15,20,23.80
2012,09,13,15,21,23.80
2012,09,13,15,22,23.70
2012,09,13,15,23,23.70
2012,09,13,15,24,23.70
2012,09,13,15,25,23.80
2012,09,13,15,26,23.80
2012,09,13,15,27,23.80
2012,09,13,15,28,23.70
2012,09,13,15,29,23.70
2012,09,13,15,30,23.70
2012,09,13,15,31,23.70
2012,09,13,15,32,23.70
2012,09,13,15,33,23.70
2012,09,13,15,34,23.70
2012,09,13,15,35,23.80
2012,09,13,15,36,23.80
2012,09,13,15,37,23.90
2012,09,13,15,38,24.00
2012,09,13,15,39,24.10
2012,09,13,15,40,24.10
2012,09,13,15,41,24.20
2012,09,13,15,42,24.30
2012,09,13,15,43,24.30
2012,09,13,15,44,24.30
2012,09,13,15,45,24.40
2012,09,13,15,46,24.40
2012,09,13,15,47,24.40
2012,09,13,15,48,24.30
2012,09,13,15,49,24.30
2012,09,13,15,50,24.40
2012,09,13,15,51,24.40
2012,09,13,15,52,24.40
2012,09,13,15,53,24.50
2012,09,13,15,54,24.50
2012,09,13,15,55,24.50
2012,09,13,15,56,24.40
2012,09,13,15,57,24.30
2012,09,13,15,58,24.30
2012,09,13,15,59,24.30
2012,09,13,16,00,24.30
2012,09,13,16,01,24.40
2012,09,13,16,02,24.40
2012,09,13,16,03,24.50
2012,09,13,16,04,24.50
2012,09,13,16,05,24.60
2012,09,13,16,06,24.50
2012,09,13,16,07,24.50
2012,09,13,16,08,24.50
2012,09,13,16,09,24.50
2012,09,13,16,10,24.40
2012,09,13,16,11,24.40
2012,09,13,16,12,24.30
2012,09,13,16,13,24.00
2012,09,13,16,14,23.70
2012,09,13,16,15,23.30
2012,09,13,16,16,22.90
2012,09,13,16,17,22.50
2012,09,13,16,18,22.20
2012,09,13,16,19,22.00
2012,09,13,16,20,21.80
2012,09,13,16,21,21.60
2012,09,13,16,22,21.60
2012,09,13,16,23,21.60
2012,09,13,16,24,21.60
2012,09,13,16,25,21.60
2012,09,13,16,26,21.60
2012,09,13,16,27,21.60
2012,09,13,16,28,21.60
2012,09,13,16,29,21.50
2012,09,13,16,30,21.40
2012,09,13,16,31,21.30
2012,09,13,16,32,21.20
2012,09,13,16,33,21.10
2012,09,13,16,34,21.00
2012,09,13,16,35,20.90
2012,09,13,16,36,20.80
2012,09,13,16,37,20.70
2012,09,13,16,38,20.50
2012,09,13,16,39,20.40
2012,09,13,16,40,20.30
2012,09,13,16,41,20.30
2012,09,13,16,42,20.30
2012,09,13,16,43,20.30
2012,09,13,16,44,20.30
2012,09,13,16,45,20.30
2012,09,13,16,46,20.30
2012,09,13,16,47,20.20
2012,09,13,16,48,20.10
2012,09,13,16,49,19.90
2012,09,13,16,50,19.70
2012,09,13,16,51,19.50
2012,09,13,16,52,19.40
2012,09,13,16,53,19.20
2012,09,13,16,54,19.10
2012,09,13,16,55,18.90
2012,09,13,16,56,18.90
2012,09,13,16,57,18.90
2012,09,13,16,58,18.90
2012,09,13,16,59,18.80
2012,09,13,17,00,18.80
2012,09,13,17,01,18.80
2012,09,13,17,02,18.70
2012,09,13,17,03,18.70
2012,09,13,17,04,18.60
2012,09,13,17,05,18.60
2012,09,13,17,06,18.50
2012,09,13,17,07,18.50
2012,09,13,17,08,18.60
2012,09,13,17,09,18.60
2012,09,13,17,10,18.60
2012,09,13,17,11,18.60
2012,09,13,17,12,18.70
2012,09,13,17,13,18.70
2012,09,13,17,14,18.70
2012,09,13,17,15,18.70
2012,09,13,17,16,18.70
2012,09,13,17,17,18.70
2012,09,13,17,18,18.70
2012,09,13,17,19,18.60
2012,09,13,17,20,18.70
2012,09,13,17,21,18.70
2012,09,13,17,22,18.70
2012,09,13,17,23,18.70
2012,09,13,17,24,18.70
2012,09,13,17,25,18.70
2012,09,13,17,26,18.70
2012,09,13,17,27,18.70
2012,09,13,17,28,18.70
2012,09,13,17,29,18.70
2012,09,13,17,30,18.80
2012,09,13,17,31,18.80
2012,09,13,17,32,18.80
2012,09,13,17,33,18.80
2012,09,13,17,34,18.80
2012,09,13,17,35,18.80